• In Uzbekistan
  • List of Countries
  • For 7 days
  • Water Temperature
  • Satellite Maps
  • Weather Map
  • Weather Widgets
  • user-avatar
    Login

    Hourly Weather Fier

    Today, 21 August, Monday

    Time Temperature Precipitation Wind Pressure Humidity
    00:00 +26°C° 1 mm 3 mps 757 mmHg 64%
    01:00 +25°C° 1 mm 4 mps 757 mmHg 70%
    02:00 +25°C° 1.5 mm 4 mps 757 mmHg 76%
    03:00 +25°C° 1.5 mm 4 mps 757 mmHg 81%
    04:00 +24°C° 1.5 mm 3 mps 757 mmHg 87%
    05:00 +25°C° 0.1 mm 3 mps 757 mmHg 81%
    06:00 +26°C° 0.1 mm 2 mps 757 mmHg 74%
    07:00 +27°C° 0.1 mm 2 mps 757 mmHg 68%
    08:00 +29°C° 0 mm 2 mps 757 mmHg 59%
    09:00 +30°C° 0 mm 2 mps 757 mmHg 49%
    10:00 +33°C° 0 mm 3 mps 757 mmHg 40%
    11:00 +34°C° 0 mm 3 mps 757 mmHg 39%
    12:00 +34°C° 0 mm 4 mps 757 mmHg 37%
    13:00 +35°C° 0 mm 5 mps 757 mmHg 36%
    14:00 +34°C° 0 mm 5 mps 757 mmHg 38%
    15:00 +34°C° 0 mm 5 mps 757 mmHg 40%
    16:00 +33°C° 0 mm 6 mps 756 mmHg 42%
    17:00 +30°C° 0 mm 6 mps 757 mmHg 48%
    18:00 +28°C° 0 mm 5 mps 757 mmHg 55%
    19:00 +27°C° 0 mm 5 mps 757 mmHg 62%
    20:00 +26°C° 0 mm 5 mps 757 mmHg 66%
    21:00 +25°C° 0 mm 4 mps 758 mmHg 70%
    22:00 +23°C° 0 mm 4 mps 758 mmHg 73%
    23:00 +23°C° 0 mm 4 mps 758 mmHg 73%

    Tomorrow, 22 August, Tuesday

    Time Temperature Precipitation Wind Pressure Humidity
    00:00 +22°C° 0 mm 3 mps 758 mmHg 72%
    01:00 +22°C° 0 mm 3 mps 758 mmHg 72%
    02:00 +21°C° 0 mm 3 mps 758 mmHg 70%
    03:00 +21°C° 0 mm 4 mps 758 mmHg 69%
    04:00 +21°C° 0 mm 4 mps 759 mmHg 68%
    05:00 +22°C° 0 mm 4 mps 759 mmHg 61%
    06:00 +23°C° 0 mm 4 mps 759 mmHg 55%
    07:00 +25°C° 0 mm 4 mps 759 mmHg 49%
    08:00 +27°C° 0 mm 4 mps 759 mmHg 43%
    09:00 +28°C° 0 mm 4 mps 760 mmHg 38%
    10:00 +30°C° 0 mm 5 mps 760 mmHg 32%
    11:00 +32°C° 0 mm 5 mps 759 mmHg 29%
    12:00 +33°C° 0 mm 5 mps 759 mmHg 27%
    13:00 +34°C° 0 mm 6 mps 759 mmHg 24%
    14:00 +34°C° 0 mm 6 mps 759 mmHg 24%
    15:00 +34°C° 0 mm 7 mps 758 mmHg 23%
    16:00 +34°C° 0 mm 7 mps 758 mmHg 23%
    17:00 +30°C° 0 mm 7 mps 758 mmHg 30%
    18:00 +27°C° 0 mm 6 mps 759 mmHg 38%
    19:00 +25°C° 0 mm 5 mps 759 mmHg 45%
    20:00 +23°C° 0 mm 5 mps 759 mmHg 46%
    21:00 +22°C° 0 mm 4 mps 760 mmHg 47%
    22:00 +22°C° 0 mm 4 mps 760 mmHg 48%
    23:00 +21°C° 0 mm 4 mps 760 mmHg 46%

    Day after tomorrow, 23 August, Wednesday

    Time Temperature Precipitation Wind Pressure Humidity
    00:00 +21°C° 0 mm 3 mps 760 mmHg 44%
    01:00 +21°C° 0 mm 3 mps 760 mmHg 42%
    02:00 +20°C° 0 mm 3 mps 760 mmHg 42%
    03:00 +20°C° 0 mm 3 mps 760 mmHg 43%
    04:00 +20°C° 0 mm 3 mps 760 mmHg 43%
    05:00 +21°C° 0 mm 2 mps 760 mmHg 41%
    06:00 +24°C° 0 mm 2 mps 760 mmHg 39%
    07:00 +25°C° 0 mm 2 mps 761 mmHg 38%
    08:00 +28°C° 0 mm 2 mps 761 mmHg 33%
    09:00 +30°C° 0 mm 2 mps 761 mmHg 29%
    10:00 +32°C° 0 mm 2 mps 761 mmHg 24%
    11:00 +34°C° 0 mm 3 mps 761 mmHg 23%
    12:00 +35°C° 0 mm 4 mps 761 mmHg 21%
    13:00 +35°C° 0 mm 5 mps 760 mmHg 20%
    14:00 +35°C° 0 mm 5 mps 760 mmHg 21%
    15:00 +34°C° 0 mm 5 mps 760 mmHg 22%
    16:00 +33°C° 0 mm 5 mps 760 mmHg 24%
    17:00 +30°C° 0 mm 5 mps 760 mmHg 30%
    18:00 +27°C° 0 mm 4 mps 761 mmHg 37%
    19:00 +25°C° 0 mm 3 mps 761 mmHg 43%
    20:00 +24°C° 0 mm 3 mps 761 mmHg 44%
    21:00 +24°C° 0 mm 2 mps 761 mmHg 44%
    22:00 +23°C° 0 mm 2 mps 762 mmHg 45%
    23:00 +23°C° 0 mm 2 mps 762 mmHg 44%

    24 August, Thursday

    Time Temperature Precipitation Wind Pressure Humidity
    00:00 +23°C° 0 mm 2 mps 762 mmHg 43%
    01:00 +23°C° 0 mm 2 mps 762 mmHg 41%
    02:00 +23°C° 0 mm 2 mps 762 mmHg 41%
    03:00 +21°C° 0 mm 2 mps 761 mmHg 41%
    04:00 +21°C° 0 mm 2 mps 761 mmHg 40%
    05:00 +24°C° 0 mm 2 mps 762 mmHg 38%
    06:00 +25°C° 0 mm 2 mps 762 mmHg 36%
    07:00 +27°C° 0 mm 2 mps 762 mmHg 34%
    08:00 +29°C° 0 mm 2 mps 762 mmHg 30%
    09:00 +31°C° 0 mm 2 mps 762 mmHg 26%
    10:00 +34°C° 0 mm 1 mps 762 mmHg 22%
    11:00 +35°C° 0 mm 2 mps 762 mmHg 21%
    12:00 +36°C° 0 mm 3 mps 762 mmHg 20%
    13:00 +37°C° 0 mm 4 mps 761 mmHg 19%
    14:00 +36°C° 0 mm 4 mps 761 mmHg 20%
    15:00 +36°C° 0 mm 5 mps 761 mmHg 21%
    16:00 +35°C° 0 mm 5 mps 761 mmHg 23%
    17:00 +33°C° 0 mm 4 mps 761 mmHg 28%
    18:00 +29°C° 0 mm 4 mps 761 mmHg 34%
    19:00 +26°C° 0 mm 3 mps 761 mmHg 39%
    20:00 +26°C° 0 mm 3 mps 762 mmHg 39%
    21:00 +25°C° 0 mm 2 mps 762 mmHg 39%
    22:00 +25°C° 0 mm 2 mps 762 mmHg 40%
    23:00 +25°C° 0 mm 2 mps 762 mmHg 39%

    25 August, Friday

    Time Temperature Precipitation Wind Pressure Humidity
    00:00 +25°C° 0 mm 2 mps 762 mmHg 38%
    01:00 +24°C° 0 mm 2 mps 762 mmHg 38%
    02:00 +24°C° 0 mm 2 mps 762 mmHg 37%
    03:00 +24°C° 0 mm 2 mps 762 mmHg 36%
    04:00 +24°C° 0 mm 2 mps 762 mmHg 35%
    05:00 +25°C° 0 mm 2 mps 762 mmHg 33%
    06:00 +27°C° 0 mm 2 mps 762 mmHg 31%
    07:00 +28°C° 0 mm 2 mps 762 mmHg 29%
    08:00 +31°C° 0 mm 2 mps 762 mmHg 26%
    09:00 +33°C° 0 mm 1 mps 762 mmHg 22%
    10:00 +36°C° 0 mm 1 mps 762 mmHg 19%
    11:00 +37°C° 0 mm 2 mps 762 mmHg 18%
    12:00 +38°C° 0 mm 3 mps 762 mmHg 17%
    13:00 +38°C° 0 mm 4 mps 761 mmHg 17%
    14:00 +38°C° 0 mm 4 mps 761 mmHg 18%
    15:00 +38°C° 0 mm 4 mps 761 mmHg 19%
    16:00 +37°C° 0 mm 4 mps 761 mmHg 20%
    17:00 +34°C° 0 mm 3 mps 761 mmHg 25%
    18:00 +30°C° 0 mm 3 mps 761 mmHg 31%
    19:00 +28°C° 0 mm 2 mps 761 mmHg 36%
    20:00 +27°C° 0 mm 2 mps 762 mmHg 36%
    21:00 +27°C° 0 mm 2 mps 762 mmHg 36%
    22:00 +26°C° 0 mm 2 mps 762 mmHg 36%
    23:00 +26°C° 0 mm 2 mps 762 mmHg 36%

    26 August, Saturday

    Time Temperature Precipitation Wind Pressure Humidity
    00:00 +26°C° 0 mm 2 mps 762 mmHg 35%
    01:00 +25°C° 0 mm 1 mps 762 mmHg 35%
    02:00 +25°C° 0 mm 2 mps 762 mmHg 35%
    03:00 +25°C° 0 mm 2 mps 762 mmHg 36%
    04:00 +24°C° 0 mm 2 mps 762 mmHg 36%
    05:00 +26°C° 0 mm 2 mps 762 mmHg 35%
    06:00 +27°C° 0 mm 2 mps 762 mmHg 34%
    07:00 +29°C° 0 mm 2 mps 762 mmHg 33%
    08:00 +31°C° 0 mm 1 mps 762 mmHg 28%
    09:00 +34°C° 0 mm 1 mps 762 mmHg 23%
    10:00 +36°C° 0 mm 1 mps 762 mmHg 19%
    11:00 +38°C° 0 mm 2 mps 762 mmHg 18%
    12:00 +38°C° 0 mm 2 mps 761 mmHg 17%
    13:00 +39°C° 0 mm 3 mps 761 mmHg 16%
    14:00 +38°C° 0 mm 3 mps 761 mmHg 17%
    15:00 +38°C° 0 mm 3 mps 760 mmHg 19%
    16:00 +37°C° 0 mm 4 mps 760 mmHg 20%
    17:00 +35°C° 0 mm 3 mps 760 mmHg 26%
    18:00 +31°C° 0 mm 2 mps 761 mmHg 32%
    19:00 +28°C° 0 mm 1 mps 761 mmHg 38%
    20:00 +27°C° 0 mm 1 mps 761 mmHg 37%
    21:00 +27°C° 0 mm 1 mps 761 mmHg 37%
    22:00 +27°C° 0 mm 1 mps 761 mmHg 36%
    23:00 +26°C° 0 mm 1 mps 761 mmHg 37%
    Show more